MATSUYAMA_AIRPORT current weather conditions

sailwx.info

Wind from 160 at 2 knots

Air temperature 6.0° C
Visibility: greater than 5.4 NM
Dewpoint -2.0° C

Last reported at 2017-Jan-21 12:00 UTC.
Time now 2017-Jan-21 21:49 UTC

Location: N 33°49' E 132°42'.
View on Google Maps.

See reports from other nearby stations

  
Tides and Currents Weather Stations Pressure Air Temp Water Temp Dewpoint Dewpoint Depression Visibility Wind Speed Wind Dir Waves Ship Positions
date/time (UTC)wind fromknots sea level pressurealtimeterstation pressurevisibilityair tempwater tempwave heightnotes
2017-Jan-21 12:00 160 2 5.4 6.0
2017-Jan-21 11:00 150 6 5.4 7.0
2017-Jan-21 10:00 230 6 5.4 7.0
2017-Jan-21 09:00 240 5 5.4 7.0
2017-Jan-21 08:00 310 2 5.4 7.0
2017-Jan-21 07:00 210 2 5.4 8.0
2017-Jan-21 06:00 280 6 5.4 8.0
2017-Jan-21 05:00 350 6 5.4 8.0
2017-Jan-21 04:00 340 13 5.4 8.0
2017-Jan-21 03:00 360 11 5.4 8.0
2017-Jan-21 02:00 350 12 5.4 8.0
2017-Jan-21 01:00 060 6 5.4 6.0
2017-Jan-21 00:00 110 7 5.4 4.0
2017-Jan-20 23:00 090 6 5.4 2.0
2017-Jan-20 22:00 130 6 5.4-0.0
2017-Jan-20 21:10 110 4 5.4 3.0
2017-Jan-20 12:00 310 15 5.4 4.0
2017-Jan-20 11:00 280 17 5.4 5.0
2017-Jan-20 10:00 280 20 5.4 5.0
2017-Jan-20 09:00 290 25 5.4 5.0
2017-Jan-20 08:31 280 25 gusting 36 5.4 6.0
2017-Jan-20 08:00 270 27 5.4 6.0
2017-Jan-20 07:10 260 26 gusting 36 5.4 5.0 Showers in the vicinity.
2017-Jan-20 07:00 250 29 5.4 6.0 Showers in the vicinity.
2017-Jan-20 06:31 280 31 gusting 46 5.4 5.0 Showers in the vicinity.
2017-Jan-20 06:19 270 41 gusting 51 5.4 7.0 Light rain showers.
2017-Jan-20 06:10 260 31 gusting 45 5.4 8.0 Light rain showers.
2017-Jan-20 06:00 270 32 5.4 8.0
2017-Jan-20 05:28 260 28 gusting 49 5.4 7.0 Light rain showers.
2017-Jan-20 05:05 260 29 gusting 40 5.4 8.0 Showers in the vicinity.
2017-Jan-20 05:00 260 31 5.4 8.0 Showers in the vicinity.
2017-Jan-20 04:19 260 29 gusting 41 5.4 8.0 Showers in the vicinity.
2017-Jan-20 04:00 260 29 5.4 9.0 Showers in the vicinity.
2017-Jan-20 03:42 260 28 gusting 40 5.4 9.0
2017-Jan-20 03:24 260 29 5.4 9.0
2017-Jan-20 03:00 260 20 gusting 35 5.4 8.0
2017-Jan-20 02:00 270 27 5.4 7.0 Light rain showers.
2017-Jan-20 01:48 270 24 gusting 38 5.4 8.0 Light rain showers.
2017-Jan-20 01:00 260 21 5.4 9.0 Light rain showers.
2017-Jan-20 00:00 250 17 5.4 9.0
2017-Jan-19 23:00 250 14 5.4 9.0
2017-Jan-19 22:00 270 15 4.3 9.0 Light rain showers.
2017-Jan-19 21:23 290 13 4.3 8.0 Light rain showers.
2017-Jan-19 21:10 310 2 4.3 8.0 Light rain showers.